1513432801.0,13804,8.0,71900.3,-12.41,-19.95,-20.09,0,*67
1513432802.24,13805,8.0,71898.3,-12.41,-19.95,-20.09,0,*66
1513432803.48,13806,8.0,71898.8,-12.41,-19.95,-19.99,0,*66
1513432804.74,13807,8.0,71898.5,-12.41,-19.99,-20.15,0,*65
1513432805.96,13808,8.0,71902.8,-12.39,-19.91,-20.09,0,*60
1513432807.19,13809,8.0,71902.8,-12.41,-19.95,-19.99,0,*69
1513432808.43,13810,8.0,71896.8,-12.41,-19.95,-19.99,0,*61
1513432809.67,13811,8.0,71898.3,-12.41,-19.95,-20.09,0,*63
1513432810.91,13812,8.0,71896.0,-12.41,-19.95,-20.09,0,*60
1513432812.17,13813,8.0,71896.3,-12.41,-19.99,-20.15,0,*60
1513432813.43,13814,8.0,71898.3,-12.41,-19.95,-20.15,0,*6B
1513432814.67,13815,8.0,71900.8,-12.41,-19.95,-19.99,0,*64
1513432815.88,13816,8.0,71900.8,-12.43,-19.91,-20.09,0,*62
1513432817.12,13817,8.0,71900.3,-12.41,-19.99,-20.09,0,*69
1513432818.36,13818,8.0,71898.8,-12.41,-19.99,-20.09,0,*66
1513432819.6,13819,8.0,71896.5,-12.41,-20.09,-20.25,0,*6A
1513432820.86,13820,8.0,71898.8,-12.41,-19.99,-20.15,0,*60
1513432822.09,13821,8.0,71898.0,-12.43,-19.99,-20.15,0,*63
1513432823.31,13822,8.0,71902.3,-12.43,-19.95,-20.09,0,*61
1513432824.53,13823,8.0,71902.3,-12.43,-19.95,-20.09,0,*60
1513432825.75,13824,8.0,71896.8,-12.43,-19.95,-20.09,0,*67
1513432826.99,13825,8.0,71896.5,-12.41,-19.99,-20.09,0,*68
1513432828.24,13826,8.0,71898.8,-12.41,-20.09,-20.15,0,*65
1513432829.48,13827,8.0,71900.0,-12.43,-19.95,-20.15,0,*69
1513432830.71,13828,8.0,71900.3,-12.43,-20.09,-20.15,0,*69
1513432831.93,13829,8.0,71900.0,-12.39,-19.95,-20.05,0,*6B
1513432833.19,13830,8.0,71902.3,-12.41,-19.99,-20.15,0,*61
1513432834.45,13831,8.0,71904.0,-12.41,-19.99,-20.15,0,*60
1513432835.66,13832,8.0,71900.0,-12.43,-20.09,-20.09,0,*6F
1513432836.89,13833,8.0,71900.5,-12.43,-19.99,-20.15,0,*60
1513432838.15,13834,8.0,71904.8,-12.43,-20.15,-20.15,0,*69
1513432839.38,13835,8.0,71898.5,-12.41,-20.09,-20.09,0,*6A
1513432840.61,13836,8.0,71902.8,-12.43,-20.09,-20.15,0,*66
1513432841.82,13837,8.0,71898.5,-12.43,-20.09,-19.99,0,*69
1513432843.08,13838,8.0,71896.0,-12.43,-20.15,-20.15,0,*65
1513432844.3,13839,8.0,71902.0,-12.43,-20.09,-20.15,0,*69
1513432845.51,13840,8.0,71902.0,-12.43,-20.09,-20.09,0,*6A
1513432846.73,13841,8.0,71904.5,-12.39,-19.91,-20.09,0,*6D
1513432847.95,13842,8.0,71904.0,-12.43,-19.99,-20.09,0,*6B
1513432849.16,13843,8.0,71900.5,-12.43,-20.09,-20.09,0,*69
1513432850.39,13844,8.0,71906.3,-12.43,-20.09,-20.15,0,*63
1513432851.61,13845,8.0,71902.3,-12.43,-19.99,-20.09,0,*6C
1513432852.83,13846,8.0,71902.0,-12.43,-19.99,-20.09,0,*6F
1513432854.04,13847,8.0,71904.5,-12.43,-20.09,-20.09,0,*6D
1513432855.27,13848,8.0,71902.3,-12.43,-20.09,-20.15,0,*6F
1513432856.51,13849,8.0,71902.5,-12.41,-19.99,-20.09,0,*62
1513432857.72,13850,8.0,71900.8,-12.43,-20.09,-20.09,0,*6B
1513432858.96,13851,8.0,71906.5,-12.45,-19.99,-20.09,0,*6F
1513432860.18,13852,8.0,71906.0,-12.43,-19.99,-19.91,0,*61
1513432861.4,13853,8.0,71906.5,-12.43,-19.95,-19.99,0,*64
1513432862.61,13854,8.0,71900.0,-12.43,-19.91,-19.99,0,*67
1513432863.83,13855,8.0,71906.0,-12.43,-19.99,-20.09,0,*6D
1513432865.05,13856,8.0,71896.0,-12.43,-19.99,-19.99,0,*6D
1513432866.26,13857,8.0,71900.3,-12.43,-19.99,-19.91,0,*64
1513432867.48,13858,8.0,71900.3,-12.43,-19.99,-19.99,0,*63
1513432868.7,13859,8.0,71902.3,-12.43,-19.99,-19.91,0,*6A
1513432869.91,13860,8.0,71902.5,-12.43,-20.09,-20.09,0,*68
1513432871.12,13861,8.0,71902.0,-12.43,-19.99,-19.99,0,*69
1513432872.34,13862,8.0,71902.5,-12.43,-19.95,-19.99,0,*66
1513432873.55,13863,8.0,71900.5,-12.43,-20.09,-20.09,0,*6B
1513432874.77,13864,8.0,71898.0,-12.43,-19.99,-20.09,0,*6F
1513432875.99,13865,8.0,71898.5,-12.43,-19.99,-19.99,0,*6D
1513432877.2,13866,8.0,71896.8,-12.43,-19.99,-20.09,0,*6D
1513432878.41,13867,8.0,71904.0,-12.43,-20.09,-19.99,0,*6C
1513432879.65,13868,8.0,71898.3,-12.43,-19.99,-20.15,0,*6E
1513432880.89,13869,8.0,71896.5,-12.43,-20.15,-20.09,0,*6C
1513432882.15,13870,8.0,71898.5,-12.45,-19.99,-20.15,0,*61
1513432883.42,13871,8.0,71898.5,-12.45,-19.99,-20.15,0,*60
1513432884.64,13872,8.0,71898.0,-12.43,-19.99,-20.09,0,*68
1513432885.87,13873,8.0,71898.8,-12.43,-19.95,-20.15,0,*68
1513432887.09,13874,8.0,71898.5,-12.43,-19.95,-20.09,0,*62
1513432888.31,13875,8.0,71900.3,-12.43,-19.95,-19.99,0,*60
1513432889.55,13876,8.0,71904.3,-12.41,-19.99,-19.99,0,*6D
1513432890.81,13877,8.0,71902.0,-12.45,-20.09,-20.15,0,*65
1513432892.04,13878,8.0,71898.0,-12.45,-20.09,-20.09,0,*67
1513432893.3,13879,8.0,71900.8,-12.45,-20.09,-20.15,0,*6B
1513432894.53,13880,8.0,71900.8,-12.43,-20.09,-20.15,0,*6B
1513432895.75,13881,8.0,71896.0,-12.43,-19.99,-20.09,0,*64
1513432896.99,13882,8.0,71898.3,-12.45,-19.95,-19.99,0,*6E
1513432898.23,13883,8.0,71898.8,-12.45,-20.09,-19.99,0,*60
1513432899.48,13884,8.0,71898.5,-12.45,-19.95,-20.09,0,*6B
1513432900.73,13885,8.0,71900.5,-12.45,-20.09,-20.15,0,*68
1513432901.95,13886,8.0,71900.5,-12.43,-19.95,-20.09,0,*6F
1513432903.2,13887,8.0,71898.8,-12.45,-19.99,-19.99,0,*67
1513432904.44,13888,8.0,71902.0,-12.45,-19.99,-20.09,0,*6B
1513432905.69,13889,8.0,71902.5,-12.45,-19.99,-20.09,0,*6A
1513432906.93,13890,8.0,71900.3,-12.45,-19.99,-19.99,0,*61
1513432908.19,13891,8.0,71900.3,-12.45,-20.09,-20.15,0,*6D
1513432909.45,13892,8.0,71900.0,-12.45,-19.99,-20.15,0,*6D
1513432910.7,13893,8.0,71900.3,-12.45,-19.99,-19.91,0,*6A
1513432911.94,13894,8.0,71902.3,-12.45,-19.99,-19.99,0,*65
1513432913.19,13895,8.0,71900.5,-12.45,-19.95,-19.99,0,*68
1513432914.43,13896,8.0,71898.5,-12.45,-19.99,-19.91,0,*6F
1513432915.69,13897,8.0,71902.5,-12.45,-20.09,-20.15,0,*6B
1513432916.93,13898,8.0,71904.3,-12.45,-20.05,-20.05,0,*69
1513432918.21,13899,8.0,71904.0,-12.45,-20.15,-20.15,0,*68
1513432919.47,13900,8.0,71904.8,-12.45,-20.05,-20.15,0,*68
1513432920.71,13901,8.0,71900.8,-12.45,-19.99,-19.91,0,*60
1513432921.95,13902,8.0,71906.0,-12.45,-20.09,-19.99,0,*68
1513432923.2,13903,8.0,71902.5,-12.45,-20.05,-20.15,0,*6B
1513432924.44,13904,8.0,71906.3,-12.45,-20.09,-20.09,0,*6D
1513432925.7,13905,8.0,71902.8,-12.45,-20.09,-20.15,0,*61
1513432926.94,13906,8.0,71906.8,-12.45,-19.99,-19.99,0,*6F
1513432928.18,13907,8.0,71904.0,-12.45,-19.99,-19.91,0,*66
1513432929.43,13908,8.0,71902.8,-12.45,-19.95,-19.99,0,*6D
1513432930.67,13909,8.0,71902.0,-12.45,-19.99,-19.91,0,*68
1513432931.91,13910,8.0,71900.0,-12.45,-20.09,-20.09,0,*68
1513432933.2,13911,8.0,71900.8,-12.45,-20.15,-20.15,0,*69
1513432934.48,13912,8.0,71900.5,-12.45,-20.15,-20.15,0,*6A
1513432935.71,13913,8.0,71900.8,-12.45,-20.05,-20.05,0,*6B
1513432936.97,13914,8.0,71902.3,-12.45,-20.09,-20.15,0,*61
1513432938.21,13915,8.0,71898.5,-12.45,-20.09,-20.09,0,*6D
1513432939.45,13916,8.0,71902.3,-12.45,-20.09,-20.09,0,*6E
1513432940.71,13917,8.0,71902.3,-12.45,-20.15,-20.05,0,*6E
1513432941.95,13918,8.0,71900.8,-12.45,-20.09,-19.99,0,*63
1513432943.23,13919,8.0,71900.3,-12.45,-20.15,-20.15,0,*61
1513432944.49,13920,8.0,71900.3,-12.45,-20.15,-19.95,0,*69
1513432945.73,13921,8.0,71906.5,-12.45,-20.05,-19.95,0,*69
1513432946.99,13922,8.0,71906.0,-12.45,-20.05,-19.85,0,*6B
1513432948.26,13923,7.94,71902.5,-12.45,-19.95,-19.81,0,*6D
1513432949.51,13924,8.0,71910.3,-12.45,-19.99,-20.05,0,*60
1513432950.75,13925,8.0,71904.0,-12.45,-19.99,-19.95,0,*62
1513432951.99,13926,8.0,71906.0,-12.45,-20.05,-20.05,0,*6D
1513432953.24,13927,8.0,71906.0,-12.45,-19.99,-19.95,0,*60
1513432954.48,13928,8.0,71902.3,-12.45,-19.99,-19.99,0,*63
1513432955.72,13929,8.0,71900.5,-12.45,-20.05,-19.95,0,*61
1513432956.99,13930,8.0,71900.5,-12.45,-19.99,-19.81,0,*63
1513432958.23,13931,8.0,71906.3,-12.45,-19.95,-19.91,0,*6F
1513432959.49,13932,8.0,71900.5,-12.45,-20.05,-19.85,0,*6A
1513432960.76,13933,8.0,71902.5,-12.45,-19.99,-19.81,0,*60
1513432962.0,13934,8.0,71900.8,-12.45,-19.95,-19.91,0,*6A
1513432963.26,13935,8.0,71900.0,-12.45,-20.05,-19.85,0,*6D
1513432964.5,13936,8.0,71898.5,-12.45,-20.05,-20.05,0,*6C
1513432965.74,13937,8.0,71902.0,-12.45,-19.99,-19.91,0,*65
1513432966.98,13938,8.0,71900.3,-12.45,-20.05,-20.05,0,*62
1513432968.22,13939,8.0,71900.3,-12.45,-20.05,-20.05,0,*63
1513432969.45,13940,8.0,71898.3,-12.45,-20.05,-20.05,0,*6D
1513432970.71,13941,8.0,71900.8,-12.45,-20.05,-19.85,0,*6E
1513432971.95,13942,8.0,71900.3,-12.45,-20.05,-19.95,0,*6C
1513432973.2,13943,8.0,71904.0,-12.45,-19.99,-19.95,0,*62
1513432974.45,13944,8.0,71900.8,-12.45,-19.99,-19.95,0,*65
1513432975.71,13945,8.0,71900.3,-12.45,-19.95,-19.81,0,*6D
1513432976.98,13946,8.0,71902.8,-12.45,-20.15,-19.95,0,*69
1513432978.24,13947,8.0,71900.3,-12.45,-20.05,-19.85,0,*68
1513432979.51,13948,8.0,71900.3,-12.45,-19.95,-19.85,0,*64
1513432980.78,13949,8.0,71900.3,-12.45,-19.95,-19.85,0,*65
1513432982.04,13950,8.0,71900.8,-12.45,-19.95,-19.85,0,*6D
1513432983.31,13951,8.0,71900.3,-12.45,-19.99,-19.85,0,*60
1513432984.57,13952,8.0,71896.3,-12.45,-20.05,-19.85,0,*6C
1513432985.84,13953,8.0,71902.0,-12.45,-19.99,-19.81,0,*66
1513432987.11,13954,8.0,71902.3,-12.45,-19.99,-19.85,0,*65
1513432988.37,13955,8.0,71904.3,-12.45,-19.99,-19.85,0,*64
1513432989.64,13956,8.0,71900.0,-12.45,-19.95,-19.85,0,*6B
1513432990.88,13957,8.0,71900.5,-12.45,-19.91,-19.75,0,*61
1513432992.15,13958,8.0,71896.3,-12.45,-19.95,-19.85,0,*65
1513432993.42,13959,8.0,71900.8,-12.45,-19.99,-19.81,0,*6C
1513432994.69,13960,8.0,71902.0,-12.45,-19.99,-19.85,0,*62
1513432995.95,13961,8.0,71900.8,-12.45,-19.91,-19.81,0,*6F
1513432997.21,13962,8.0,71900.3,-12.49,-20.05,-19.85,0,*63
1513432998.45,13963,8.0,71900.8,-12.49,-20.05,-19.91,0,*67
1513432999.71,13964,8.0,71904.5,-12.49,-20.05,-19.85,0,*65
1513433000.96,13965,8.0,71906.0,-12.49,-20.05,-19.85,0,*64
1513433002.2,13966,8.0,71902.0,-12.49,-20.09,-19.91,0,*6E
1513433003.44,13967,8.0,71906.3,-12.49,-20.05,-19.91,0,*63
1513433004.69,13968,8.0,71902.8,-12.45,-20.05,-19.85,0,*65
1513433005.96,13969,8.0,71904.5,-12.45,-19.99,-19.81,0,*6F
1513433007.2,13970,8.0,71904.3,-12.49,-20.09,-19.99,0,*61
1513433008.46,13971,8.0,71906.8,-12.49,-19.99,-19.85,0,*6E
1513433009.71,13972,8.0,71902.8,-12.49,-19.99,-19.91,0,*68
1513433010.98,13973,8.0,71900.8,-12.49,-19.99,-19.85,0,*6C
1513433012.19,13974,8.0,71906.0,-12.51,-20.05,-19.91,0,*68
1513433013.42,13975,8.0,71902.5,-12.49,-20.05,-19.91,0,*60
1513433014.68,13976,8.0,71906.0,-12.49,-20.05,-19.85,0,*66
1513433015.92,13977,8.0,71906.5,-12.51,-20.05,-19.85,0,*6E
1513433017.18,13978,8.0,71900.5,-12.49,-20.05,-19.85,0,*68
1513433018.42,13979,8.0,71904.8,-12.51,-19.99,-19.85,0,*6F
1513433019.69,13980,8.0,71908.8,-12.49,-19.99,-19.85,0,*60
1513433020.95,13981,8.0,71904.8,-12.49,-19.91,-19.85,0,*69
1513433022.22,13982,8.0,71906.0,-12.49,-19.99,-19.85,0,*62
1513433023.45,13983,8.0,71904.3,-12.49,-20.05,-19.91,0,*69
1513433024.69,13984,8.0,71904.5,-12.49,-20.05,-19.91,0,*6E
1513433025.93,13985,8.0,71906.3,-12.49,-20.05,-19.91,0,*6F
1513433027.19,13986,8.0,71906.8,-12.45,-19.99,-19.81,0,*6E
1513433028.43,13987,8.0,71906.0,-12.49,-20.05,-19.91,0,*6D
1513433029.66,13988,8.0,71906.8,-12.49,-20.05,-19.75,0,*68
1513433030.93,13989,8.0,71906.8,-12.49,-19.99,-19.85,0,*69
1513433032.17,13990,8.0,71904.3,-12.49,-19.91,-19.75,0,*66
1513433033.41,13991,8.0,71904.5,-12.49,-19.91,-19.75,0,*67
1513433034.65,13992,8.0,71902.0,-12.49,-19.91,-19.75,0,*64
1513433035.89,13993,8.0,71904.0,-12.49,-19.91,-19.75,0,*65
1513433037.16,13994,8.0,71904.3,-12.49,-19.91,-19.85,0,*6D
1513433038.4,13995,8.0,71904.8,-12.49,-19.91,-19.71,0,*67
1513433039.64,13996,8.0,71906.0,-12.51,-19.99,-19.85,0,*6E
1513433040.89,13997,8.0,71906.8,-12.51,-19.99,-19.85,0,*6F
1513433042.15,13998,8.0,71904.8,-12.49,-19.99,-19.85,0,*69
1513433043.42,13999,8.0,71902.8,-12.49,-19.99,-19.85,0,*68
1513433044.69,14000,8.0,71904.3,-12.49,-19.99,-19.85,0,*66
1513433045.95,14001,8.0,71908.0,-12.49,-19.91,-19.85,0,*6F
1513433047.2,14002,8.0,71906.8,-12.49,-19.91,-19.75,0,*63
1513433048.41,14003,8.0,71904.5,-12.51,-19.91,-19.71,0,*6F
1513433049.68,14004,8.0,71904.8,-12.49,-19.91,-19.85,0,*6A
1513433050.92,14005,8.0,71906.3,-12.49,-19.91,-19.75,0,*64
1513433052.2,14006,8.0,71904.8,-12.45,-19.81,-19.65,0,*6B
1513433053.44,14007,8.0,71910.0,-12.49,-19.91,-19.75,0,*66
1513433054.68,14008,7.94,71904.8,-12.49,-19.91,-19.75,0,*69
1513433055.92,14009,8.0,71904.8,-12.49,-19.91,-19.75,0,*68
1513433057.19,14010,8.0,71908.3,-12.49,-19.85,-19.75,0,*65
1513433058.45,14011,8.0,71910.3,-12.49,-19.85,-19.75,0,*64
1513433059.69,14012,8.0,71908.8,-12.51,-19.99,-19.85,0,*6C
1513433060.93,14013,8.0,71910.5,-12.49,-19.75,-19.75,0,*69
1513433062.2,14014,8.0,71910.3,-12.49,-19.85,-19.71,0,*65
1513433063.46,14015,8.0,71906.8,-12.49,-19.85,-19.71,0,*64
1513433064.7,14016,8.0,71908.3,-12.49,-19.99,-19.75,0,*6E
1513433065.92,14017,8.0,71908.5,-12.51,-19.91,-19.75,0,*6E
1513433067.18,14018,8.0,71912.0,-12.49,-19.91,-19.85,0,*67
1513433068.45,14019,8.0,71910.0,-12.49,-19.85,-19.75,0,*6C
1513433069.71,14020,8.0,71904.5,-12.49,-19.85,-19.75,0,*66
1513433070.97,14021,8.0,71910.3,-12.49,-19.85,-19.71,0,*63
1513433072.26,14022,8.0,71906.0,-12.45,-19.81,-19.65,0,*6D
1513433073.52,14023,7.94,71904.8,-12.49,-19.85,-19.71,0,*61
1513433074.76,14024,8.0,71906.8,-12.49,-19.91,-19.75,0,*67
1513433075.98,14025,8.0,71906.0,-12.51,-19.99,-19.75,0,*67
1513433077.22,14026,8.0,71906.0,-12.49,-19.91,-19.75,0,*65
1513433078.46,14027,8.0,71904.5,-12.49,-19.91,-19.71,0,*60
1513433079.73,14028,8.0,71910.8,-12.51,-19.85,-19.85,0,*68
1513433080.99,14029,8.0,71908.8,-12.49,-19.85,-19.71,0,*6B
1513433082.21,14030,8.0,71910.3,-12.51,-19.91,-19.75,0,*6B
1513433083.45,14031,8.0,71906.3,-12.49,-19.91,-19.75,0,*63
1513433084.71,14032,8.0,71910.0,-12.49,-19.85,-19.71,0,*61
1513433085.97,14033,8.0,71906.8,-12.49,-19.85,-19.75,0,*64
1513433087.19,14034,8.0,71904.5,-12.51,-19.91,-19.75,0,*6F
1513433088.43,14035,8.0,71906.0,-12.49,-19.75,-19.71,0,*69
1513433089.69,14036,8.0,71908.3,-12.49,-19.85,-19.75,0,*61
1513433090.93,14037,8.0,71906.5,-12.51,-19.85,-19.71,0,*6D
1513433092.17,14038,8.0,71908.5,-12.49,-19.75,-19.71,0,*64
1513433093.41,14039,8.0,71908.3,-12.49,-19.75,-19.71,0,*65
1513433094.65,14040,8.0,71910.5,-12.51,-19.85,-19.71,0,*6D
1513433095.89,14041,8.0,71908.8,-12.49,-19.75,-19.71,0,*6A
1513433097.13,14042,8.0,71910.5,-12.49,-19.75,-19.71,0,*69
1513433098.39,14043,8.0,71906.5,-12.49,-19.85,-19.71,0,*67
1513433099.63,14044,8.0,71910.3,-12.49,-19.75,-19.75,0,*6B
1513433100.87,14045,8.0,71908.8,-12.51,-19.85,-19.75,0,*6C
1513433102.11,14046,8.0,71906.8,-12.49,-19.91,-19.71,0,*67
1513433103.37,14047,8.0,71910.5,-12.49,-19.85,-19.71,0,*63
1513433104.63,14048,8.0,71910.5,-12.49,-19.85,-19.75,0,*68
1513433105.87,14049,8.0,71904.0,-12.49,-19.75,-19.71,0,*62
1513433107.09,14050,8.0,71904.5,-12.51,-19.75,-19.71,0,*63
1513433108.35,14051,8.0,71908.0,-12.49,-19.85,-19.75,0,*60
1513433109.59,14052,8.0,71904.5,-12.49,-19.75,-19.71,0,*68
1513433110.83,14053,8.0,71910.3,-12.49,-19.75,-19.71,0,*69
1513433112.07,14054,8.0,71910.0,-12.51,-19.85,-19.71,0,*68
1513433113.29,14055,8.0,71906.5,-12.51,-19.75,-19.71,0,*66
1513433114.53,14056,8.0,71910.5,-12.51,-19.85,-19.75,0,*6E
1513433115.79,14057,8.0,71904.8,-12.49,-19.85,-19.75,0,*66
1513433117.03,14058,8.0,71902.5,-12.49,-19.91,-19.75,0,*6C
1513433118.27,14059,8.0,71904.3,-12.49,-19.91,-19.71,0,*69
1513433119.51,14060,8.0,71900.0,-12.49,-19.75,-19.75,0,*6D
1513433120.73,14061,8.0,71902.0,-12.51,-19.75,-19.75,0,*65
1513433121.99,14062,8.0,71906.8,-12.49,-19.85,-19.71,0,*64
1513433123.25,14063,8.0,71904.8,-12.49,-19.85,-19.71,0,*65
1513433124.52,14064,8.0,71904.8,-12.49,-19.85,-19.75,0,*66
1513433125.76,14065,8.0,71906.5,-12.51,-19.85,-19.71,0,*6A
1513433126.97,14066,8.0,71908.3,-12.51,-19.75,-19.71,0,*66
1513433128.21,14067,8.0,71910.0,-12.51,-19.85,-19.75,0,*6C
1513433129.45,14068,8.0,71908.0,-12.51,-19.85,-19.71,0,*67
1513433130.69,14069,8.0,71906.3,-12.49,-19.75,-19.71,0,*60
1513433131.93,14070,8.0,71904.3,-12.49,-19.75,-19.75,0,*6C
1513433133.17,14071,8.0,71902.3,-12.51,-19.85,-19.71,0,*6F
1513433134.41,14072,8.0,71902.5,-12.51,-19.85,-19.71,0,*6C
1513433135.65,14073,8.0,71904.5,-12.49,-19.75,-19.75,0,*6F
1513433136.89,14074,8.0,71904.0,-12.49,-19.75,-19.71,0,*6C
1513433138.15,14075,8.0,71906.8,-12.49,-19.85,-19.75,0,*66
1513433139.37,14076,8.0,71908.8,-12.51,-19.75,-19.71,0,*67
1513433140.61,14077,8.0,71904.8,-12.51,-19.85,-19.75,0,*6D
1513433141.85,14078,8.0,71906.5,-12.49,-19.75,-19.71,0,*60
1513433143.09,14079,8.0,71910.5,-12.51,-19.85,-19.75,0,*63
1513433144.33,14080,8.0,71906.0,-12.51,-19.85,-19.75,0,*65
1513433145.56,14081,8.0,71910.8,-12.51,-19.85,-19.71,0,*60
1513433146.81,14082,8.0,71906.5,-12.51,-19.75,-19.85,0,*67
1513433148.05,14083,8.0,71908.3,-12.51,-19.85,-19.75,0,*66
1513433149.29,14084,8.0,71904.3,-12.49,-19.75,-19.71,0,*63
1513433150.55,14085,8.0,71906.8,-12.49,-19.85,-19.71,0,*6D
1513433151.79,14086,8.0,71906.0,-12.51,-19.85,-19.75,0,*63
1513433153.01,14087,8.0,71906.3,-12.51,-19.75,-19.75,0,*6D
1513433154.22,14088,8.0,71906.8,-12.51,-19.75,-19.75,0,*62
1513433155.49,14089,8.0,71906.8,-12.49,-19.85,-19.75,0,*65
1513433156.72,14090,8.0,71904.8,-12.51,-19.85,-19.71,0,*60
1513433157.99,14091,8.0,71910.3,-12.49,-19.85,-19.71,0,*68
1513433159.23,14092,8.0,71908.3,-12.49,-19.75,-19.71,0,*64
1513433160.44,14093,8.0,71910.5,-12.51,-19.75,-19.71,0,*6C
1513433161.68,14094,8.0,71910.5,-12.51,-19.85,-19.75,0,*60
1513433162.9,14095,8.0,71908.0,-12.51,-19.75,-19.71,0,*6A
1513433164.11,14096,8.0,71910.8,-12.51,-19.75,-19.71,0,*69
1513433165.38,14097,8.0,71912.0,-12.49,-19.85,-19.71,0,*6E
1513433166.62,14098,8.0,71908.5,-12.51,-19.75,-19.61,0,*66
1513433167.84,14099,8.0,71912.0,-12.51,-19.75,-19.71,0,*66
1513433169.07,14100,8.0,71908.5,-12.51,-19.85,-19.71,0,*68
1513433170.29,14101,8.0,71912.0,-12.51,-19.75,-19.71,0,*66
1513433171.51,14102,8.0,71908.3,-12.51,-19.75,-19.71,0,*65
1513433172.75,14103,8.0,71910.5,-12.49,-19.75,-19.71,0,*6D
1513433173.99,14104,8.0,71910.0,-12.49,-19.75,-19.71,0,*6A
1513433175.22,14105,8.0,71908.0,-12.51,-19.85,-19.71,0,*6D
1513433176.44,14106,8.0,71908.3,-12.51,-19.75,-19.71,0,*61
1513433177.66,14107,8.0,71908.3,-12.51,-19.75,-19.71,0,*60
1513433178.9,14108,8.0,71908.0,-12.51,-19.85,-19.71,0,*60
1513433180.17,14109,8.0,71910.8,-12.49,-19.61,-19.71,0,*62
1513433181.39,14110,7.94,71904.5,-12.51,-19.71,-19.71,0,*62
1513433182.61,14111,8.0,71910.5,-12.51,-19.71,-19.71,0,*63
1513433183.83,14112,8.0,71910.0,-12.51,-19.71,-19.71,0,*60
1513433185.1,14113,8.0,71908.0,-12.49,-19.61,-19.75,0,*6D
1513433186.4,14114,8.0,71910.3,-12.53,-19.65,-19.65,0,*64
1513433187.65,14115,8.0,71906.3,-12.51,-19.71,-19.61,0,*66
1513433188.89,14116,8.0,71908.3,-12.51,-19.85,-19.71,0,*6F
1513433190.11,14117,7.94,71906.5,-12.51,-19.71,-19.75,0,*61
1513433191.32,14118,8.0,71908.8,-12.51,-19.75,-19.71,0,*6E
1513433192.54,14119,8.0,71908.5,-12.51,-19.75,-19.71,0,*6F
1513433193.76,14120,8.0,71910.5,-12.51,-19.75,-19.71,0,*65
1513433195.02,14121,8.0,71908.8,-12.53,-19.81,-19.75,0,*69
1513433196.24,14122,8.0,71912.0,-12.51,-19.71,-19.71,0,*63
1513433197.49,14123,8.0,71912.3,-12.51,-19.71,-19.61,0,*63
1513433198.73,14124,8.0,71914.3,-12.51,-19.71,-19.61,0,*64
1513433200.01,14125,8.0,71914.8,-12.51,-19.61,-19.61,0,*64
1513433201.26,14126,8.0,71914.0,-12.51,-19.61,-19.71,0,*66
1513433202.5,14127,8.0,71914.8,-12.51,-19.71,-19.61,0,*67
1513433203.75,14128,8.0,71910.3,-12.51,-19.71,-19.61,0,*68
1513433205.02,14129,8.0,71910.5,-12.49,-19.71,-19.61,0,*60
1513433206.27,14130,8.0,71906.5,-12.51,-19.71,-19.61,0,*61
1513433207.49,14131,8.0,71910.3,-12.51,-19.75,-19.71,0,*65
1513433208.71,14132,8.0,71908.0,-12.51,-19.71,-19.71,0,*62
1513433209.93,14133,8.0,71910.5,-12.51,-19.75,-19.75,0,*63
1513433211.19,14134,8.0,71914.0,-12.53,-19.81,-19.75,0,*6D
1513433212.46,14135,8.0,71912.8,-12.51,-19.61,-19.61,0,*65
1513433213.76,14136,8.0,71912.5,-12.53,-19.65,-19.61,0,*60
1513433215.01,14137,8.0,71912.3,-12.51,-19.71,-19.61,0,*66
1513433216.26,14138,8.0,71914.5,-12.51,-19.61,-19.71,0,*69
1513433217.47,14139,8.0,71912.5,-12.51,-19.75,-19.71,0,*6D
1513433218.69,14140,8.0,71910.5,-12.51,-19.75,-19.71,0,*63
1513433219.96,14141,8.0,71910.5,-12.51,-19.61,-19.61,0,*66
1513433221.21,14142,8.0,71914.8,-12.51,-19.61,-19.71,0,*64
1513433222.48,14143,8.0,71908.5,-12.53,-19.65,-19.75,0,*67
1513433223.75,14144,8.0,71910.0,-12.53,-19.75,-19.65,0,*60
1513433225.03,14145,8.0,71908.3,-12.55,-19.65,-19.61,0,*62
1513433226.32,14146,8.0,71908.8,-12.53,-19.65,-19.65,0,*63
1513433227.62,14147,8.0,71910.0,-12.53,-19.65,-19.65,0,*62
1513433228.92,14148,8.0,71908.8,-12.53,-19.65,-19.61,0,*69
1513433230.19,14149,8.0,71912.8,-12.53,-19.75,-19.65,0,*6D
1513433231.44,14150,8.0,71910.5,-12.53,-19.75,-19.75,0,*64
1513433232.68,14151,8.0,71914.0,-12.51,-19.61,-19.71,0,*66
1513433233.98,14152,8.0,71908.8,-12.53,-19.65,-19.65,0,*66
1513433235.28,14153,8.0,71910.5,-12.53,-19.65,-19.61,0,*63
1513433236.56,14154,8.0,71910.8,-12.51,-19.61,-19.61,0,*62
1513433237.83,14155,8.0,71908.3,-12.51,-19.61,-19.61,0,*63
1513433239.13,14156,8.0,71910.8,-12.53,-19.65,-19.61,0,*66
1513433240.43,14157,8.0,71910.0,-12.53,-19.65,-19.65,0,*63
1513433241.73,14158,8.0,71910.3,-12.53,-19.65,-19.61,0,*68
1513433243.0,14159,8.0,71908.0,-12.55,-19.65,-19.65,0,*6B
1513433244.3,14160,8.0,71910.5,-12.53,-19.65,-19.65,0,*67
1513433245.6,14161,8.0,71906.0,-12.53,-19.65,-19.65,0,*66
1513433246.9,14162,8.0,71908.3,-12.53,-19.65,-19.61,0,*61
1513433248.17,14163,8.0,71906.5,-12.51,-19.61,-19.61,0,*66
1513433249.44,14164,8.0,71910.0,-12.51,-19.61,-19.61,0,*61
1513433250.72,14165,8.0,71908.8,-12.51,-19.61,-19.61,0,*60
1513433251.99,14166,8.0,71910.8,-12.55,-19.65,-19.61,0,*63
1513433253.29,14167,8.0,71910.0,-12.53,-19.61,-19.65,0,*64
1513433254.6,14168,8.0,71908.5,-12.53,-19.61,-19.61,0,*6F
1513433255.9,14169,8.0,71910.8,-12.53,-19.61,-19.61,0,*6E
1513433257.17,14170,8.0,71908.5,-12.53,-19.61,-19.51,0,*65
1513433258.45,14171,8.0,71912.3,-12.53,-19.61,-19.51,0,*64
1513433259.75,14172,8.0,71910.3,-12.53,-19.61,-19.61,0,*64
1513433261.02,14173,8.0,71910.3,-12.51,-19.57,-19.41,0,*60
1513433262.27,14174,8.0,71910.5,-12.51,-19.57,-19.47,0,*61
1513433263.52,14175,8.0,71912.5,-12.51,-19.57,-19.47,0,*60
1513433264.77,14176,8.0,71912.8,-12.51,-19.47,-19.57,0,*63
1513433265.99,14177,8.0,71906.5,-12.51,-19.47,-19.47,0,*63
1513433267.23,14178,8.0,71912.8,-12.51,-19.57,-19.47,0,*6D
1513433268.48,14179,8.0,71910.0,-12.51,-19.57,-19.47,0,*6C
1513433269.73,14180,8.0,71914.5,-12.53,-19.51,-19.51,0,*69
1513433270.97,14181,8.0,71914.5,-12.53,-19.47,-19.51,0,*6F
1513433272.28,14182,8.0,71910.3,-12.49,-19.57,-19.57,0,*60
1513433273.5,14183,8.0,71910.3,-12.51,-19.47,-19.47,0,*68
1513433274.78,14184,8.0,71910.3,-12.51,-19.57,-19.57,0,*6F
1513433276.06,14185,8.0,71910.5,-12.51,-19.57,-19.57,0,*6E
1513433277.36,14186,8.0,71910.5,-12.53,-19.61,-19.61,0,*6F
1513433278.58,14187,8.0,71908.8,-12.51,-19.47,-19.47,0,*6C
1513433279.83,14188,8.0,71912.3,-12.51,-19.57,-19.47,0,*62
1513433281.13,14189,8.0,71914.0,-12.49,-19.57,-19.57,0,*6B
1513433282.43,14190,8.0,71908.0,-12.49,-19.57,-19.61,0,*66
1513433283.71,14191,8.0,71908.0,-12.51,-19.57,-19.57,0,*6B
1513433284.99,14192,8.0,71908.0,-12.51,-19.57,-19.61,0,*6D
1513433286.29,14193,8.0,71908.5,-12.49,-19.57,-19.61,0,*65
1513433287.56,14194,8.0,71910.5,-12.51,-19.57,-19.61,0,*6B
1513433288.84,14195,8.0,71910.3,-12.51,-19.57,-19.61,0,*6A
1513433290.11,14196,8.0,71912.0,-12.51,-19.57,-19.61,0,*69
1513433291.37,14197,8.0,71912.0,-12.51,-19.47,-19.57,0,*6C
1513433292.67,14198,8.0,71910.8,-12.49,-19.57,-19.57,0,*6B
1513433293.95,14199,8.0,71914.3,-12.51,-19.61,-19.57,0,*66
1513433295.25,14200,8.0,71912.8,-12.49,-19.61,-19.61,0,*69
1513433296.53,14201,8.0,71912.3,-12.51,-19.61,-19.57,0,*64
1513433297.83,14202,8.0,71912.3,-12.49,-19.61,-19.61,0,*6B
1513433299.13,14203,8.0,71912.0,-12.53,-19.65,-19.61,0,*65
1513433300.41,14204,8.0,71914.0,-12.51,-19.61,-19.57,0,*61
1513433301.69,14205,8.0,71914.0,-12.51,-19.57,-19.57,0,*65
1513433302.94,14206,8.0,71914.0,-12.51,-19.47,-19.57,0,*67
1513433304.25,14207,8.0,71914.5,-12.49,-19.57,-19.57,0,*6E
1513433305.52,14208,8.0,71914.0,-12.51,-19.57,-19.61,0,*6D
1513433306.8,14209,8.0,71914.5,-12.51,-19.57,-19.57,0,*69
1513433308.08,14210,8.0,71912.3,-12.49,-19.57,-19.47,0,*69